Orbital elements:
2004 MN4                                                             PHA 0.002A
Epoch 2005 Jan. 30.0 TT = JDT 2453400.5                 MPC
M 137.21486              (2000.0)            P               Q
n   1.11268675     Peri.  126.37614     +0.87282597     +0.48743743
a   0.9223323      Node   204.47880     -0.46430640     +0.81418963
e   0.1911201      Incl.    3.33084     -0.15031435     +0.31543622
P   0.89           H   19.6           G   0.15           U   4
Residuals in seconds of arc
040315 691  1.1-  0.4-    041225 683  0.2+  0.5-    041226 097  0.2-  0.5-
040315 691  0.2+  0.2+    041225 683  0.6-  0.1+    041226 097  1.9+  0.7+
040315 691  0.6+  0.2-    041225 683  0.2-  0.0     041226 097  0.9+  0.1-
040315 691  0.3-  0.2-    041225 683  0.8-  0.3-    041226 097  1.5+  0.0
040315 691  0.2+  0.3-    041225 683  0.4-  0.4-    041226 097  0.6+  0.0
040619 695  0.3+  0.2+    041225 683  0.2-  0.0     041226 097  0.2-  0.4+
040619 695  0.5+  0.1-    041225 683  0.9-  0.6+    041226 097  0.7+  0.3+
040619 695  0.2+  0.1+    041225 683  1.0-  0.1-    041226 097  0.3+  0.1+
040620 695  0.2-  0.4+    041225 683  0.3-  0.4-    041226 097  0.7+  0.2-
040620 695  0.0   0.4+    041225 683  0.2+  0.0     041226 097  0.5+  0.4-
040620 695  0.4-  0.0     041225 683  0.0   0.1-    041226 097  0.5+  0.5+
041218 E12  0.0   0.7+    041225 683  0.2-  0.4+    041226 097  0.4+  0.0
041218 E12  1.2+  0.2-    041225 683  0.9-  0.9-    041226 097  0.4+  0.1-
041218 E12  0.0   0.2-    041225 683  0.4+  0.4-    041226 097  0.1+  0.0
041218 E12  0.3-  0.4+    041225 448  0.1+  0.0     041226 097  0.1+  0.1+
041218 E12  0.2+  0.1-    041225 448  0.0   0.1-    041226 097  0.1+  0.2+
041218 E12  0.1+  0.2-    041225 448  0.1-  0.1-    041226 097  0.7+  0.1-
041218 E12  0.1+  0.1-    041226 H36  0.6-  0.7+    041226 097  0.9+  0.4-
041218 E12  0.3+  0.3+    041226 H36  0.0   1.0+    041226 097  0.6+  0.2+
041218 E12  0.7+  0.2+    041226 H36  0.5-  0.4-    041226 097  0.6+  0.2-
041218 E12  0.3+  0.5+    041226 H36  0.2-  0.0     041226 097  0.2+  0.2+
041218 E12  0.7+  0.1-    041226 H36  0.8+  0.0     041226 097  0.4+  0.1-
041218 E12  0.0   0.1-    041226 H36  0.7+  0.5+    041226 097  0.5+  0.0
041219 854  0.5-  1.0-    041226 H06  0.7-  0.2-    041226 097  0.4+  0.2-
041219 854  1.3-  1.5+    041226 715  0.1-  0.6+    041226 097  0.6+  0.2+
041219 854  0.7+  0.5+    041226 H06  0.4-  0.0     041226 097  0.3+  0.3+
041219 854  0.8-  0.5-    041226 H06  0.7-  1.0+    041226 097  0.3+  0.0
041219 854  0.1-  0.3-    041226 H36  0.2-  0.1-    041226 097  0.0   0.2-
041219 474  0.2+  0.1-    041226 715  0.3-  0.5+    041226 097  0.1-  0.0
041219 474  0.1+  0.1-    041226 H06  0.3+  1.0+    041226 097  0.2-  0.2-
041219 474  0.2-  0.3-    041226 H06  0.2-  0.5+    041226 097  0.7+  0.1+
041219 474  0.0   0.1-    041226 H06  0.3-  0.2+    041226 097  0.8+  0.0
041220 673  0.8-  0.6-    041226 715  0.4-  0.6+    041226 097  0.8+  0.3-
041220 673  0.6-  0.0     041226 715  0.3-  0.3+    041226 097  0.3+  0.0
041220 673  0.7-  0.3-    041226 H06  0.3-  0.3+    041226 097  0.0   0.3-
041220 673  0.4-  0.0     041226 683  0.1-  0.1-    041226 097  0.0   0.2-
041222 E12  0.3+  0.1+    041226 683  0.2-  0.4-    041226 097  0.0   0.2-
041222 E12  0.3+  0.1-    041226 H06  0.7-  0.9+    041226 097  0.0   0.4-
041222 E12  0.6-  0.3-    041226 683  1.2-  0.3+    041226 097  0.5+  0.0
041222 E12  0.7+  0.1+    041226 683  0.1-  0.2+    041226 097  0.3+  0.1+
041223 704 (2.8-  2.3+)   041226 H06  0.1-  0.1-    041226 097  0.1+  0.2-
041223 704  0.4-  0.9+    041226 683  0.5-  0.2-    041226 097  0.7+  0.1-
041223 704 (2.5-  0.4+)   041226 683  0.8+  0.7-    041226 097  0.1-  0.6-
041223 704  0.6-  0.6-    041226 H06  1.2-  1.0+    041226 097  0.0   0.9-
041223 704  1.2-  1.5+    041226 683  0.2-  0.5-    041226 097  0.1+  0.3-
041223 704  0.5-  0.2-    041226 H06  0.8-  0.6+    041226 097  0.4+  0.2-
041223 704  1.7-  0.7+    041226 H06  0.6-  0.6-    041226 097  1.0+  0.5+
041223 704  1.0-  0.2-    041226 683  0.1-  0.3-    041226 097  0.8+  0.4+
041223 E12  0.6+  0.2-    041226 H06  0.0   0.6+    041226 097  0.0   0.5-
041223 E12  0.5-  0.1+    041226 683  0.6-  0.2-    041226 097  0.0   0.1-
041223 E12  0.1+  0.2+    041226 683  0.5+  1.9-    041227 H06  0.8-  0.1+
041223 E12  0.2+  0.3-    041226 683  0.7-  0.7-    041227 H06  0.4-  0.6+
041223 E12  0.1-  0.1-    041226 651  0.1+  0.1-    041227 H06  0.5-  0.3+
041223 E12  0.2+  0.1+    041226 683  0.0   0.4+    041227 H06  0.6-  0.2+
041223 E12  0.4+  0.2-    041226 651  0.1+  0.1-    041227 097  0.3-  0.4+
041223 E12  0.2+  0.0     041226 651  0.3+  0.1+    041227 097  0.3-  0.0
041223 E12  0.1-  0.2+    041226 651  0.1-  0.1+    041227 097  0.5-  0.1+
041223 E12  0.7+  0.6-    041226 683  0.0   0.6+    041227 097  0.4-  0.4+
041223 E12  0.2+  0.3+    041226 448  0.1-  0.1-    041227 952  0.8+  1.3-
041223 E12  0.2-  0.0     041226 H06  0.4-  0.2-    041227 952  0.6+  0.0
041223 E12  0.1+  0.2+    041226 651  0.0   0.1+    041227 952  0.4+  0.3-
041223 E12  0.1-  0.4+    041226 651  0.1+  0.3+    041227 952  0.1+  0.1-
041223 E12  0.5+  0.5-    041226 683  0.2+  0.4-    041227 952  0.3+  0.1+
041223 E12  0.0   0.4-    041226 683  0.7-  0.0     041227 952  0.4+  0.1-
041223 E12  0.4+  0.3-    041226 683  0.5-  0.4+    041227 952  0.1+  0.1-
041223 E12  0.1-  0.2+    041226 448  0.0   0.0     041227 097  0.1-  0.3+
041223 E12  0.0   0.5-    041226 683  0.1+  0.3+    041227 952  0.2+  0.4-
041223 E12  0.8+  0.5-    041226 H06  0.4-  0.2-    041227 952  0.0   0.5-
041224 683  0.6-  0.4-    041226 651  0.2+  0.3+    041227 941  0.1-  0.2-
041224 683  0.5+  0.2-    041226 651  0.1+  0.6+    041227 952  0.1+  0.2-
041224 699  0.7-  0.0     041226 651  0.1+  0.1+    041227 941  0.2-  0.1-
041224 699  0.6-  0.3+    041226 651  0.1+  0.4+    041227 952  0.1+  0.0
041224 699  0.6-  0.2+    041226 683  0.9-  0.1-    041227 941  0.2-  0.3-
041224 699  0.7-  0.2-    041226 651  0.1+  0.3+    041227 941  0.1-  0.2-
041224 699  0.8+  1.4-    041226 448  0.2-  0.0     041227 941  0.3-  0.4-
041224 699  1.6-  1.0+    041226 683  1.0+  1.1+    041227 170  0.6+  0.3+
041224 699  0.7-  0.4-    041226 683  0.5-  0.4+    041227 170  0.5+  0.2+
041224 699  0.8-  0.5+    041226 448  0.4-  0.1-    041227 170  0.5+  0.2+
041224 620  0.2+  0.2+    041226 683  0.5-  0.3+    041227 170  0.3+  0.1+
041224 620  0.0   0.5+    041226 651  0.1+  0.2+    041227 170  0.4+  0.1-
041224 620  0.1+  0.3+    041226 683  1.4-  1.4-    041227 952  0.2+  0.1+
041225 H06  1.2-  0.4+    041226 651  0.4+  0.3+    041227 170  0.2+  0.1-
041225 H06  1.0-  0.5+    041226 651  0.0   0.1+    041227 952  0.2+  0.5-
041225 683  0.0   0.2+    041226 683  0.3+  0.3-    041227 952  0.0   0.2-
041225 683  0.1-  0.1+    041226 448  0.0   0.1+    041227 952  0.4+  0.4-
041225 H06  0.6-  0.2+    041226 683  0.5-  0.4-    041227 952  0.4-  0.7-
041225 683  0.6-  0.9-    041226 683  0.3-  0.9+    041227 952  0.5+  0.1+
041225 683  0.8-  0.3+    041226 683  0.5-  0.1-
041225 683  0.1-  0.1-    041226 097  0.3-  0.6+

Ephemeris:
2004 MN4                 a,e,i = 0.92, 0.19, 3                   q = 0.7461
Date    TT    R. A. (2000) Decl.     Delta      r     Elong.  Phase     V
2004 12 21    23 46.78   -34 42.3    0.096    0.963    74.8    99.6    18.0
2004 12 31    01 36.89   -23 29.4    0.105    0.994    92.6    81.4    17.5
2005 01 10    02 46.14   -12 17.4    0.129    1.021   103.4    69.5    17.6
2005 01 20    03 31.77   -03 52.1    0.160    1.045   108.0    63.6    18.0
2005 01 30    04 06.06   +02 15.0    0.196    1.064   108.7    61.2    18.4
2005 02 09    04 35.03   +06 49.8    0.235    1.080   107.2    60.8    18.8
2005 02 19    05 01.79   +10 21.2    0.275    1.091   104.6    61.3    19.2
2005 03 01    05 27.67   +13 04.8    0.314    1.097   101.4    62.3    19.5
2005 03 11    05 53.34   +15 10.8    0.353    1.099    97.8    63.6    19.8
2005 03 21    06 19.25   +16 44.8    0.389    1.095    94.2    65.1    20.0
2005 03 31    06 45.38   +17 50.6    0.421    1.088    90.5    66.7    20.3
2005 04 10    07 11.73   +18 31.5    0.450    1.075    86.9    68.5    20.4
2005 04 20    07 38.28   +18 49.6    0.472    1.059    83.3    70.4    20.6
2005 04 30    08 04.77   +18 47.8    0.488    1.038    79.7    72.7    20.7
2005 05 10    08 31.04   +18 29.2    0.497    1.013    76.1    75.4    20.7
2005 05 20    08 56.86   +17 57.0    0.497    0.985    72.5    78.7    20.8
2005 05 30    09 21.79   +17 16.6    0.488    0.953    68.8    82.6    20.8
2005 06 09    09 45.31   +16 34.3    0.470    0.920    64.8    87.6    20.9
2005 06 19    10 06.53   +15 59.4    0.442    0.885    60.3    93.9    20.9

Gareth V. Williams           (C) Copyright 2004 MPC           M.P.E.C. 2004-Y71

Read MPEC 2004-Y70 Read MPEC 2004-Y72


Our Web policy. Index to the CBAT/MPC/ICQ pages.

